Regional Weather Roundup
Issued by NWS

Home | Current Version | Previous Version | Graphics & Text | Print | Product List | Glossary On
Versions: 1 2 3 4 5 6 7 8 9 10 11 12 13 14 15 16 17 18 19 20 21 22 23 24 25 26 27 28 29 30 31 32 33 34 35 36 37 38 39 40 41 42 43 44 45 46 47 48 49 50
000
ASUS45 KPSR 291500
RWRAZ

PRELIMINARY ARIZONA REGIONAL HOURLY WEATHER ROUNDUP
NATIONAL WEATHER SERVICE PHOENIX AZ
800 AM MST THU JAN 29 2015

NOTE: FAIR INDICATES FEW OR NO CLOUDS BELOW 12,000 FEET WITH NO
SIGNIFICANT WEATHER AND/OR OBSTRUCTIONS TO VISIBILITY.

AZZ001>003-036-291600-
NORTHWEST ARIZONA

CITY           SKY/WX    TMP DP  RH WIND       PRES   REMARKS
KINGMAN        CLOUDY    45  42  89 NE3       30.16R
$$

AZZ004>008-015-016-018-291600-
NORTH CENTRAL ARIZONA

CITY           SKY/WX    TMP DP  RH WIND       PRES   REMARKS
GRAND CANYON   CLOUDY    41  28  60 E8G16     30.28R
PRESCOTT       CLOUDY    42  30  62 SW3       30.20R
FLAGSTAFF      NOT AVBL
PAYSON         CLOUDY    48  28  46 NE5       30.23R
$$

AZZ009>014-017-291600-
NORTHEAST ARIZONA

CITY           SKY/WX    TMP DP  RH WIND       PRES   REMARKS
WINSLOW        NOT AVBL
SAINT JOHNS    CLOUDY    33  30  88 CALM      30.26R
WINDOW ROCK    CLOUDY    33  28  81 S3        30.33R
SHOW LOW       CLOUDY    32  28  86 CALM      30.30S
$$

AZZ023-291600-
GREATER PHOENIX AREA

CITY           SKY/WX    TMP DP  RH WIND       PRES   REMARKS
PHOENIX        CLOUDY    59  51  75 E5        30.05R
GLENDALE       CLOUDY    55  54  94 CALM      30.07R
DEER VALLEY    CLOUDY    56  44  64 N3        30.06R
SCOTTSDALE     CLOUDY    57  48  72 CALM      30.07R
MESA-FALCON    CLOUDY    57  43  58 NE6       30.05S
CHANDLER       CLOUDY    55  52  88 CALM      30.07R
$$

AZZ027-028-291600-
SOUTHWEST MARICOPA COUNTY AND PINAL COUNTY

CITY           SKY/WX    TMP DP  RH WIND       PRES   REMARKS
CASA GRANDE    CLOUDY    54  48  82 CALM      30.06S
GILA BEND      PTSUNNY   54  53  94 S3        30.05R
$$

AZZ503-504-507>509-291600-
SOUTHEAST ARIZONA

CITY           SKY/WX    TMP DP  RH WIND       PRES   REMARKS
TUCSON         CLOUDY    56  46  69 SE9       30.11R
DAVIS-MONTHAN  CLOUDY    56  46  69 SE12      30.08S
RYAN FIELD       N/A     54  50  87 E9        30.09S
NOGALES        CLOUDY    48  43  82 S6        30.15R
SIERRA VISTA   CLOUDY    52  43  71 CALM      30.18S
SAFFORD        CLOUDY    54  36  50 SE15      30.16R
$$

AZZ020-021-025-026-031-291600-
SOUTHWEST ARIZONA

CITY           SKY/WX    TMP DP  RH WIND       PRES   REMARKS
YUMA           CLOUDY    62  48  60 NW5       30.07R
$$

CAZ031-033-041-043-047-048-061-291600-
SOUTHERN CALIFORNIA

CITY           SKY/WX    TMP DP  RH WIND       PRES   REMARKS
DOWNTOWN L.A.  CLOUDY    62  45  53 CALM      30.02S
L.A. AIRPORT   CLOUDY    61  45  55 E3        30.03R
SAN DIEGO      CLOUDY    62  47  57 CALM      30.04R
BURBANK        CLOUDY    58  43  57 CALM      30.03S
ONTARIO        CLOUDY    60  42  51 N5        30.04S
RIVERSIDE      CLOUDY    61  43  51 E6        30.05R
PALM SPRINGS   CLOUDY    64  39  39 W5        30.10R
EL CENTRO NAS  CLOUDY    58  50  75 SW6       30.07R
IMPERIAL       CLOUDY    58  51  78 W3        30.06R
BLYTHE         CLOUDY    58  50  75 NW7       30.07R
$$

NVZ020-UTZ003-291600-
SOUTHERN NEVADA-UTAH

CITY           SKY/WX    TMP DP  RH WIND       PRES   REMARKS
LAS VEGAS      NOT AVBL
SALT LAKE CITY PTSUNNY   30  28  92 N5        30.36S WCI  25
$$

NMZ009-TXZ055-291600-
NEW MEXICO-WEST TEXAS

CITY           SKY/WX    TMP DP  RH WIND       PRES   REMARKS
ALBUQUERQUE    CLOUDY    48  28  46 E24G33    30.35R
EL PASO        CLOUDY    51  38  60 N12       30.25R
$$


........................KEY........................
SKY/WX - SKY CONDITION/WEATHER
TMP    - TEMPERATURE IN FAHRENHEIT
DP     - DEW POINT IN FAHRENHEIT
RH     - RELATIVE HUMIDITY IN PERCENT
WIND   - DIRECTION AND SPEED IN MILES PER HOUR (MPH)
VRB    - VARIABLE WIND DIRECTION
PRES   - MEAN SEA LEVEL PRESSURE IN INCHES OF MERCURY
         F - FALLING PRESSURE   R - RISING PRESSURE
         S - STEADY PRESSURE
VSB    - VISIBILITY IN MILES
HX     - HEAT INDEX IN FAHRENHEIT
WCI    - WIND CHILL INDEX IN FAHRENHEIT
TC     - TEMPERATURE IN CELSIUS WHICH IS ALSO KNOWN AS
         TEMPERATURE IN CENTIGRADE
AFB    - AIR FORCE BASE
         LUKE AFB IS LUKE AIR FORCE BASE
         DAVIS-MONTHAN IS DAVIS-MONTHAN AIR FORCE BASE
NAS    - NAVAL AIR STATION
         EL CENTRO NAS IS EL CENTRO NAVAL AIR STATION
N/A    - NOT AVAILABLE


USA.gov is the U.S. government's official web portal to all federal, state and local government web resources and services.